Weather in Bagana

Russia / Samara Oblast     54°21′19″N   51°24′20″E
В апреле 2022 года жителям России запретили посещать сайт meteo.paraplan.net по решению Генеральной прокуратуры. Аудитория сайта уменьшилась в 10 раз. Владельцы сайта не видят смысла в поддержке погодного сервера в таких условиях. Сайт будет закрыт в октябре.
temp.,
°C
wind,
m/s
gust,
m/s
humid.,
%
clouds,
%
prec.,
mm/h
press.,
hPa
HPBL,
m
30 september, fri
fri3001:00+6ese4893100 0.0 1017297
04:00+6ese4692100 0.0 1019265
07:00+6ese369184 0.0 1021283
10:00+8ese458283 0.0 1022403
13:00+11ese447368 0.0 1023666
16:00+11ese447297 0.0 1024755
19:00+9ese4679100 0.0 1025448
22:00+7ese468673 0.0 1026254
1 october, sat
sat101:00+5ese369197 0.0 1026152
04:00+5ese3687100 0.0 1026175
07:00+5ese368598 0.0 1026166
10:00+9se456644 0.0 1026367
13:00+14sse44555 0.0 1024681
16:00+15sse45558 0.0 1023807
19:00+10se22735 0.0 102321
22:00+9se377990 0.0 1022124
2 october, sun
sun201:00+7se247251 0.0 102279
04:00+7se367762 0.0 1021110
07:00+7se4117493 0.0 1020222
10:00+13sse7115270 0.0 1019427
13:00+17s8114859 0.0 1018755
16:00+17s71254100 0.1 1017837
19:00+14s61483100 0.8 1017534
22:00+14sse5137986 0.8 1016461
3 october, mon
mon301:00+13sse61470100 0.0 1016371
04:00+12sse51271100 0.0 1017306
07:00+12sse61278100 1.6 1017345
10:00+15sse8145834 1.6 1018545
13:00+19s811425 0.0 1018901
16:00+19s8124181 0.0 10191053
19:00+16s6144698 0.0 1021486
22:00+14sse7164570 0.0 1022529
4 october, tue
tue401:00+13sse7164097 0.0 1023525
04:00+12sse7164090 0.0 1024545
07:00+11sse71642100 0.0 1025466
10:00+13sse81537100 0.0 1026703
13:00+15sse81229100 0.0 10261051
16:00+15sse71128100 0.0 10261068
19:00+12sse61331100 0.0 1028448
22:00+12sse61332100 0.0 1028488